Simultaneous Nadir Overpasses (SNOs) Predictions

Prediction of SNOs between GOES-16 and LANDSAT-8 Satellite Orbit:

Table of predicted SNOs for the next 14.0 days since TLE Epoch: 11/19/2022
Index Date Time (GOES-16) GOES-16 Lat,Lon LANDSAT-8 Lat,Lon Distance(km) Time Diff (sec)
1 11/19/2022 03:18:54 0.05, -75.18 -0.19, -76.15 111.00 80
2 11/21/2022 03:04:04 0.05, -75.19 0.47, -73.20 225.79 80
3 11/21/2022 15:28:00 -0.05, -75.21 0.61, -78.36 358.27 80
4 11/23/2022 15:15:49 -0.04, -75.22 0.01, -75.41 21.39 80
5 11/25/2022 15:00:59 -0.04, -75.23 -0.65, -72.46 315.73 80
6 11/26/2022 03:25:03 0.03, -75.22 -0.47, -77.65 276.31 80
7 11/28/2022 03:10:12 0.03, -75.23 0.14, -74.69 61.09 80
8 11/30/2022 02:58:01 0.02, -75.25 0.76, -71.74 399.31 80
9 11/30/2022 15:19:17 -0.02, -75.27 0.32, -76.90 184.44 80
10 12/02/2022 15:09:46 -0.02, -75.30 -0.31, -73.94 155.00 80
